Findlay, OH

10:54 AM EST on November 13, 2019 (GMT -0500)
Findlay

Weather History for KFDY - July, 2019

Change the Weather History Date:

Saturday, July 20, 2019

  Actual Average Record
Temperature  
Mean Temperature 88 °F -  
Max Temperature 95 °F 82 °F 96 °F (1980)
Min Temperature 78 °F 64 °F 51 °F (1951)
Cooling Degree Days 22    
Growing Degree Days 38 (Base 50)    
Moisture  
Dew Point 73 °F    
Average Humidity 66    
Maximum Humidity 85    
Minimum Humidity 47    
Precipitation  
Precipitation 0.00 in - - ()
Sea Level Pressure  
Sea Level Pressure 29.88 in    
Wind  
Wind Speed 11 mph (SW)    
Max Wind Speed 21 mph    
Max Gust Speed 26 mph    
Visibility 10 miles    
Events      
Averages and records for this station are not official NWS values.
T = Trace of Precipitation, MM = Missing Value Source: NWS Daily Summary

Daily Weather History Graph

Daily Weather History Graph

Search for Another Location

Airport or City:

Astronomy

Jul. 20, 2019 Rise Set
Actual Time 6:19 AM EDT 9:02 PM EDT
Civil Twilight 5:47 AM EDT 9:34 PM EDT
Nautical Twilight 5:06 AM EDT 10:14 PM EDT
Astronomical Twilight 4:21 AM EDT 11:00 PM EDT
Moon 11:27 PM EDT (7/20) 9:43 AM EDT (7/20)
Length of Visible Light 15h 46m
Length of Day
14h 42m
Waning Gibbous, 87% of the Moon is Illuminated
Jul 20
Waning Gibbous
Jul 24
Last Quarter
Jul 31
New
Aug 7
First Quarter
Aug 15
Full

Hourly Weather History & Observations

Time (EDT) Temp. Heat Index Dew Point Humidity Pressure Visibility Wind Dir Wind Speed Gust Speed Precip Events Conditions
12:53 AM 84.0 °F 91.9 °F 75.0 °F 74% 29.88 in 10.0 mi SW 11.5 mph - N/A   Clear
1:53 AM 82.9 °F 90.2 °F 75.0 °F 77% 29.87 in 10.0 mi SW 11.5 mph - N/A   Clear
2:53 AM 82.9 °F 89.4 °F 73.9 °F 74% 29.87 in 10.0 mi SW 11.5 mph - N/A   Clear
3:53 AM 82.0 °F 88.6 °F 75.0 °F 79% 29.91 in 10.0 mi West 9.2 mph - N/A   Clear
4:53 AM 81.0 °F 86.7 °F 75.0 °F 82% 29.92 in 10.0 mi WSW 5.8 mph - N/A   Partly Cloudy
5:53 AM 81.0 °F 86.7 °F 75.0 °F 82% 29.95 in 10.0 mi West 8.1 mph - N/A   Overcast
6:53 AM 80.1 °F 85.1 °F 75.0 °F 85% 29.97 in 10.0 mi West 8.1 mph - 0.00 in   Mostly Cloudy
7:53 AM 80.1 °F 84.5 °F 73.9 °F 81% 29.93 in 10.0 mi SSW 6.9 mph - N/A   Clear
8:53 AM 82.0 °F 86.7 °F 72.0 °F 71% 29.90 in 10.0 mi SSW 10.4 mph - N/A   Clear
9:53 AM 84.0 °F 89.6 °F 72.0 °F 67% 29.88 in 10.0 mi South 13.8 mph - N/A   Clear
10:53 AM 87.1 °F 93.6 °F 72.0 °F 61% 29.87 in 10.0 mi South 16.1 mph - N/A   Clear
11:53 AM 91.0 °F 98.2 °F 72.0 °F 53% 29.86 in 10.0 mi SSW 20.7 mph - N/A   Clear
12:53 PM 95.0 °F 103.2 °F 72.0 °F 47% 29.86 in 10.0 mi South 18.4 mph - N/A   Clear
1:53 PM 93.9 °F 104.0 °F 73.9 °F 52% 29.86 in 10.0 mi WSW 13.8 mph - N/A   Clear
2:53 PM 95.0 °F 108.2 °F 75.9 °F 54% 29.86 in 10.0 mi SSW 16.1 mph 25.3 mph N/A   Partly Cloudy
3:53 PM 93.9 °F 103.4 °F 73.0 °F 51% 29.86 in 10.0 mi WSW 19.6 mph 25.3 mph N/A   Scattered Clouds
4:53 PM 95.0 °F 105.2 °F 73.9 °F 50% 29.87 in 10.0 mi WSW 18.4 mph 26.5 mph N/A   Partly Cloudy
5:53 PM 93.0 °F 101.9 °F 73.0 °F 52% 29.87 in 10.0 mi WSW 15.0 mph 21.9 mph N/A   Partly Cloudy
6:53 PM 93.0 °F 101.9 °F 73.0 °F 52% 29.86 in 10.0 mi WSW 15.0 mph - N/A   Clear
7:53 PM 91.0 °F 100.4 °F 73.9 °F 57% 29.87 in 10.0 mi WSW 9.2 mph - N/A   Mostly Cloudy
8:53 PM 87.1 °F 97.3 °F 75.9 °F 69% 29.86 in 10.0 mi SSW 6.9 mph - N/A   Overcast
9:53 PM 84.0 °F 87.8 °F 69.1 °F 61% 29.88 in 10.0 mi North 9.2 mph - N/A   Mostly Cloudy
10:53 PM 81.0 °F 84.4 °F 70.0 °F 69% 29.86 in 10.0 mi Calm Calm - N/A   Clear
11:53 PM 78.1 °F - 72.0 °F 81% 29.86 in 10.0 mi South 5.8 mph - N/A   Clear